全球多媒体卫星系统β阶段A星 (KL-BETA B)

导读

KL-BETA B是德国于2021年8月4日08:00发射的卫星,契合当今全球小卫星发展潮流,是德国商业化航天领域布局的实践成果。当前德国正发力"新太空"战略,推动小卫星技术创新,KL-BETA B的发射,正是德国依托本土航天产业集群,探索商业航天应用、参与全球小卫星市场竞争的具体体现,助力德国在地球观测、空间技术验证等领域拓展布局。

Basic Information
目录编号:
49060
目录名称:
KL-BETA B
国际标识:
2021-070B
轨道中心:
EARTH
卫星名称:
全球多媒体卫星系统β阶段A星
卫星全名:
全球多媒体卫星系统β阶段A星 (KL-BETA B)
卫星状态:
在轨 (已飞行1805 天)
发射日期:
2021-08-04 UTC
国别 :
德国 (DE)
星等 :
--
Orbit Information
数据来源 国际轨道数据 AOE轨道数据
星历时间 2026-07-14T04:18:41+0800
10小时前
查看轨道信息
2026-07-10T19:00:00+0800
3天前
查看轨道信息
半长轴 7290.258km 7290.255km
偏心率 0.0006823 0.0006736
轨道倾角 89.003° 89.002°
近地点辐角 53.638° 64.119°
升交点赤经 215.600° 215.967°
平近点角 306.542° 215.572°
近地点 907.146km 907.207km
远地点 917.096km 917.029km
周期 103.246分钟 103.246分钟
每日圈数 13.947245 13.947255
Detailed Information
平衡模式:
三轴稳定
覆盖范围:
全球
使用方式:
暂无
2D Orbit Map
3D Orbit Map
Orbit Altitude Analysis Chart
Orbit Inclination Analysis Chart
Orbit Comprehensive Analysis Chart
View Comprehensive Chart